Location: Göttingen
(51.5413°N, 9.9158°E)
Time: 20:23:28
(UTC+02:00)

Tiros 1 despin weight - Visible Passes

Search period start: 26 May 2022 00:00
Search period end: 05 June 2022 00:00
Orbit: 592 x 639 km, 48.2° (Epoch: 26 May)

Date Brightness Start Highest point End Pass type
(mag) Time Alt. Az. Time Alt. Az. Time Alt. Az.
26 May ? 00:21:49 10° W 00:25:51 35° SSW 00:26:38 32° S visible
26 May ? 22:56:03 10° W 23:00:22 51° S 23:04:12 13° ESE visible
27 May ? 00:37:40 10° W 00:41:11 25° SSW 00:41:11 25° SSW visible
27 May ? 23:11:44 10° W 23:15:56 42° SSW 23:18:47 18° SE visible
28 May ? 00:53:51 10° WSW 00:55:46 16° SW 00:55:46 16° SW visible
28 May ? 23:27:29 10° W 23:31:25 31° SSW 23:33:24 21° SSE visible
29 May ? 22:01:39 10° W 22:05:57 48° SSW 22:10:13 10° ESE visible
29 May ? 23:43:25 10° W 23:46:49 22° SSW 23:48:02 19° S visible
30 May ? 22:17:20 10° W 22:21:29 38° SSW 22:25:34 10° SE visible
30 May ? 23:59:49 10° WSW 00:02:07 14° SW 00:02:42 14° SSW visible
31 May ? 22:33:08 10° W 22:36:56 28° SSW 22:40:26 11° SSE visible
01 Jun ? 22:49:10 10° W 22:52:18 19° SW 22:55:10 11° S visible
02 Jun ? 23:06:01 10° WSW 23:07:33 12° SW 23:09:03 10° SSW visible
